Starlink 30196

operational
NORAD ID: 57448 Int'l Des: 2023-105 Owner: SPXS Country: US Constellation: starlink
LEOCIRCULAR

About Starlink 30196

Description loading...

Live Position

Loading 3D Globe...

Upcoming Passes

Altitude History

Altitude vs Time

uPlot chart will show altitude changes over time

Two-Line Element Set

1 57448U 23105U 26102.21994949 .00000025 00000-0 10599-4 0 9992
2 57448 43.0011 73.5628 0001309 265.5173 94.5529 15.26740269150510
Epoch: Apr 12, 2026 • Age: 11 hours

Current Status

Altitude 490.7 km
Velocity 7.62 km/s
Sub-Earth Point -23.68°S, 39.44°W
Launch Date Jul 24, 2023
Age 2.7 years
Type internet

Technical Details

Classification Payload
Mass 730.00 kg
Dry Mass 700.00 kg
Total Mass 730.00 kg
Length 0.30 m
Diameter 4.10 m
Span 29.00 m
Shape Box + pan
Manufacturer SPXS
Bus Type Starlink V2M
Phase Status In Orbit
Owner/State SPXS/US

Large Constellations

Loading constellations...